Weather Roundup
Issued by NWS Chicago, IL

Home | Current Version | Previous Version | Text Only | Print | Product List | Glossary Off
Versions: 1 2 3 4 5 6 7 8 9 10 11 12 13 14 15 16 17 18 19 20 21 22 23 24 25 26 27 28 29 30 31 32 33 34 35 36 37 38 39 40 41 42 43 44 45 46 47 48 49 50

127
NZUS59 KLOT 241912
HRRLOT

CHICAGO AREA WEATHER ROUNDUP
NATIONAL WEATHER SERVICE CHICAGO/ROMEOVILLE IL
100 PM CST FRI FEB 24 2017

NOTE: "FAIR" INDICATES FEW OR NO CLOUDS BELOW 12,000 FEET WITH NO
SIGNIFICANT WEATHER AND/OR OBSTRUCTIONS TO VISIBILITY.

* THESE STATIONS ARE NOT UNDER NWS QUALITY CONTROL. THEY ALSO MAY NOT
  REPORT WEATHER SUCH AS PRECIPITATION OR FOG.

ILZ005-006-012>014-019>023-242000-
NORTHEAST ILLINOIS

CITY           SKY/WX    TMP DP  RH WIND       PRES   REMARKS
OHARE          CLOUDY    39  36  89 N16       29.44F
MIDWAY         CLOUDY    40  37  89 N9        29.44F
AURORA         CLOUDY    42  40  92 NE10      29.44F
LANSING*       CLOUDY    40  40 100 N9        29.44F FOG
JOLIET*        CLOUDY    47  45  91 N6        29.42F FOG
WAUKEGAN       CLOUDY    37  36  96 N10G21    29.45F FOG
DUPAGE AIRPORT CLOUDY    40  37  89 NE14      29.43F
WHEELING       CLOUDY    37  35  92 N10       29.47F
KANKAKEE*      CLOUDY    68  56  64 SW20G29   29.42F
MORRIS*        CLOUDY    47  45  92 N6        29.42S FOG
LEWIS AIRPORT* CLOUDY    42  42 100 NE6       29.43F FOG
NORTHERLY ISL    N/A     38  37  97 MISG        N/A
$$

WIZ051-052-058>065-066-070>072-242000-
SOUTHEAST WISCONSIN

CITY           SKY/WX    TMP DP  RH WIND       PRES   REMARKS
MILWAUKEE      CLOUDY    36  34  92 N17G26    29.48F FOG
KENOSHA*       CLOUDY    36  34  92 N14       29.47S FOG
RACINE*        LGT RAIN  36  34  92 N16G26    29.48F FOG
WAUKESHA       CLOUDY    32  32 100 NE16G23   29.49F FOG     WCI  21
WEST BEND      LGT RAIN  32  32 100 NE8       29.51F WCI  25
$$

INZ001>003-010>013-019-020-242000-
NORTHWEST INDIANA

CITY           SKY/WX    TMP DP  RH WIND       PRES   REMARKS
GARY*          CLOUDY    39  39 100 N8        29.45F FOG
MICHIGAN CITY* NOT AVBL
RENSSELAER*    NOT AVBL
VALPARAISO     CLOUDY    60  55  83 SW8G18    29.43F
$$

LMZ740>746-242000-
SOUTHERN LAKE MICHIGAN

STATION/POSITION TIME  SKY/WX   TEMP WIND        PRES    VSBY
                                AIR  DIR/SP/G
                 (UTC)          (F)  (DEG/KT/KT) (MB)    (MI)
HARRISON CRIB    1840            37  330/ 17/ 19   N/A
BURNHAM HARBOR   1900            39  360/  9/ 15   N/A
CALUMET HARBOR   1848            37  330/ 10/ 17  996.8F
BURNS HARBOR     1830            37  260/  4/  6  998.0F
MICHIGAN CITY    1840            36  210/  9/ 10   N/A
$$

ABBREVIATIONS USED IN REMARKS
   TC - TEMPERATURE IN CELSIUS
  WCI - WIND CHILL INDEX
   HX - HEAT INDEX
  VSB - VISIBILITY
$$




USA.gov is the U.S. government's official web portal to all federal, state and local government web resources and services.